Time,TemperatureF,DewpointF,PressureIn,WindDirection,WindDirectionDegrees,WindSpeedMPH,WindSpeedGustMPH,Humidity,HourlyPrecipIn,Conditions,Clouds,dailyrainin,SoftwareType,DateUTC
2015-07-31 00:04:00,64.9,60.3,29.92,North,0,0.0,2.0,85,0.00,,,0.00,WeatherCatV2.20B280,2015-07-31 04:04:00,
2015-07-31 00:09:00,65.5,60.2,29.92,North,0,1.0,3.0,83,0.00,,,0.00,WeatherCatV2.20B280,2015-07-31 04:09:00,
2015-07-31 00:14:00,65.7,60.4,29.92,North,0,1.0,3.0,83,0.00,,,0.00,WeatherCatV2.20B280,2015-07-31 04:14:00,
2015-07-31 00:19:00,65.8,60.5,29.92,North,0,0.0,5.0,83,0.00,,,0.00,WeatherCatV2.20B280,2015-07-31 04:19:00,
2015-07-31 00:24:00,65.6,60.3,29.92,North,0,0.0,2.0,83,0.00,,,0.00,WeatherCatV2.20B280,2015-07-31 04:24:00,
2015-07-31 00:29:00,65.7,60.4,29.92,North,0,0.0,2.0,83,0.00,,,0.00,WeatherCatV2.20B280,2015-07-31 04:29:00,
2015-07-31 00:34:00,65.6,60.3,29.92,North,0,0.0,0.0,83,0.00,,,0.00,WeatherCatV2.20B280,2015-07-31 04:34:00,
2015-07-31 00:44:00,65.8,60.5,29.92,North,0,0.0,2.0,83,0.00,,,0.00,WeatherCatV2.20B280,2015-07-31 04:44:00,
2015-07-31 00:49:00,65.6,60.6,29.92,North,0,0.0,0.0,84,0.00,,,0.00,WeatherCatV2.20B280,2015-07-31 04:49:00,
2015-07-31 00:54:00,65.4,60.4,29.92,North,0,0.0,1.0,84,0.00,,,0.00,WeatherCatV2.20B280,2015-07-31 04:54:00,
2015-07-31 00:59:00,65.6,60.3,29.92,North,0,0.0,0.0,83,0.00,,,0.00,WeatherCatV2.20B280,2015-07-31 04:59:00,
2015-07-31 01:04:00,65.6,60.3,29.92,North,0,0.0,2.0,83,0.00,,,0.00,WeatherCatV2.20B280,2015-07-31 05:04:00,
2015-07-31 01:09:00,66.0,60.7,29.92,SW,219,0.0,0.0,83,0.00,,,0.00,WeatherCatV2.20B280,2015-07-31 05:09:00,
2015-07-31 01:14:00,66.7,60.7,29.92,North,0,1.0,2.0,81,0.00,,,0.00,WeatherCatV2.20B280,2015-07-31 05:14:00,
2015-07-31 01:19:00,67.3,60.9,29.92,South,171,0.0,1.0,80,0.00,,,0.00,WeatherCatV2.20B280,2015-07-31 05:19:00,
2015-07-31 01:26:00,67.7,60.6,29.92,North,0,0.0,2.0,78,0.00,,,0.00,WeatherCatV2.20B280,2015-07-31 05:26:00,
2015-07-31 01:31:00,67.8,60.7,29.91,SSW,213,0.0,5.0,78,0.00,,,0.00,WeatherCatV2.20B280,2015-07-31 05:31:00,
2015-07-31 01:36:00,68.0,60.5,29.91,North,0,0.0,3.0,77,0.00,,,0.00,WeatherCatV2.20B280,2015-07-31 05:36:00,
2015-07-31 01:41:00,68.0,60.5,29.91,North,0,0.0,3.0,77,0.00,,,0.00,WeatherCatV2.20B280,2015-07-31 05:41:00,
2015-07-31 01:46:00,67.6,60.5,29.91,North,0,1.0,2.0,78,0.00,,,0.00,WeatherCatV2.20B280,2015-07-31 05:46:00,
2015-07-31 01:51:00,67.8,60.3,29.91,SSW,199,0.0,2.0,77,0.00,,,0.00,WeatherCatV2.20B280,2015-07-31 05:51:00,
2015-07-31 01:56:00,67.7,60.6,29.91,North,0,1.0,2.0,78,0.00,,,0.00,WeatherCatV2.20B280,2015-07-31 05:56:00,
2015-07-31 02:01:00,67.4,60.3,29.91,North,0,1.0,3.0,78,0.00,,,0.00,WeatherCatV2.20B280,2015-07-31 06:01:00,
2015-07-31 02:11:00,66.8,60.1,29.91,SSW,204,2.0,2.0,79,0.00,,,0.00,WeatherCatV2.20B280,2015-07-31 06:11:00,
2015-07-31 02:16:00,66.9,60.2,29.91,North,0,1.0,3.0,79,0.00,,,0.00,WeatherCatV2.20B280,2015-07-31 06:16:00,
2015-07-31 02:21:00,67.1,60.4,29.91,North,0,0.0,2.0,79,0.00,,,0.00,WeatherCatV2.20B280,2015-07-31 06:21:00,
2015-07-31 02:26:00,66.8,60.1,29.91,North,0,0.0,2.0,79,0.00,,,0.00,WeatherCatV2.20B280,2015-07-31 06:26:00,
2015-07-31 02:31:00,66.5,60.1,29.91,North,0,0.0,2.0,80,0.00,,,0.00,WeatherCatV2.20B280,2015-07-31 06:31:00,
2015-07-31 02:38:00,65.9,59.9,29.90,North,0,2.0,2.0,81,0.00,,,0.00,WeatherCatV2.20B280,2015-07-31 06:38:00,
2015-07-31 02:43:00,65.6,60.0,29.90,North,0,0.0,2.0,82,0.00,,,0.00,WeatherCatV2.20B280,2015-07-31 06:43:00,
2015-07-31 02:48:00,65.7,60.0,29.90,North,0,0.0,1.0,82,0.00,,,0.00,WeatherCatV2.20B280,2015-07-31 06:48:00,
2015-07-31 02:53:00,65.3,59.7,29.90,North,0,0.0,1.0,82,0.00,,,0.00,WeatherCatV2.20B280,2015-07-31 06:53:00,
2015-07-31 02:58:00,65.5,59.8,29.91,North,0,0.0,1.0,82,0.00,,,0.00,WeatherCatV2.20B280,2015-07-31 06:58:00,
2015-07-31 03:03:00,65.8,60.1,29.90,North,0,3.0,5.0,82,0.00,,,0.00,WeatherCatV2.20B280,2015-07-31 07:03:00,
2015-07-31 03:08:00,66.5,60.1,29.90,North,0,3.0,4.0,80,0.00,,,0.00,WeatherCatV2.20B280,2015-07-31 07:08:00,
2015-07-31 03:13:00,67.0,60.3,29.90,North,0,2.0,4.0,79,0.00,,,0.00,WeatherCatV2.20B280,2015-07-31 07:13:00,
2015-07-31 03:18:00,67.3,60.2,29.90,SSW,210,1.0,3.0,78,0.00,,,0.00,WeatherCatV2.20B280,2015-07-31 07:18:00,
2015-07-31 03:23:00,67.3,59.8,29.90,North,0,1.0,3.0,77,0.00,,,0.00,WeatherCatV2.20B280,2015-07-31 07:23:00,
2015-07-31 03:28:00,67.2,60.1,29.90,North,0,1.0,2.0,78,0.00,,,0.00,WeatherCatV2.20B280,2015-07-31 07:28:00,
2015-07-31 03:33:00,66.7,60.0,29.90,North,0,0.0,1.0,79,0.00,,,0.00,WeatherCatV2.20B280,2015-07-31 07:33:00,
2015-07-31 03:38:00,66.4,59.7,29.90,North,0,1.0,4.0,79,0.00,,,0.00,WeatherCatV2.20B280,2015-07-31 07:38:00,
2015-07-31 03:43:00,66.2,59.8,29.90,North,0,2.0,4.0,80,0.00,,,0.00,WeatherCatV2.20B280,2015-07-31 07:43:00,
2015-07-31 03:48:00,65.9,59.5,29.90,North,0,1.0,3.0,80,0.00,,,0.00,WeatherCatV2.20B280,2015-07-31 07:48:00,
2015-07-31 03:53:00,65.6,59.6,29.91,North,0,4.0,4.0,81,0.00,,,0.00,WeatherCatV2.20B280,2015-07-31 07:53:00,
2015-07-31 03:58:00,65.8,59.5,29.91,North,0,2.0,3.0,80,0.00,,,0.00,WeatherCatV2.20B280,2015-07-31 07:58:00,
2015-07-31 04:03:00,66.1,59.7,29.90,North,0,1.0,6.0,80,0.00,,,0.00,WeatherCatV2.20B280,2015-07-31 08:03:00,
2015-07-31 04:08:00,66.3,59.9,29.90,SSW,213,2.0,6.0,80,0.00,,,0.00,WeatherCatV2.20B280,2015-07-31 08:08:00,
2015-07-31 04:13:00,66.5,59.8,29.91,North,0,4.0,5.0,79,0.00,,,0.00,WeatherCatV2.20B280,2015-07-31 08:13:00,
2015-07-31 04:18:00,66.5,59.8,29.90,North,0,2.0,5.0,79,0.00,,,0.00,WeatherCatV2.20B280,2015-07-31 08:18:00,
2015-07-31 04:23:00,66.5,59.8,29.90,North,0,2.0,5.0,79,0.00,,,0.00,WeatherCatV2.20B280,2015-07-31 08:23:00,
2015-07-31 04:28:00,66.4,59.7,29.91,North,0,4.0,6.0,79,0.00,,,0.00,WeatherCatV2.20B280,2015-07-31 08:28:00,
2015-07-31 04:33:00,66.3,59.6,29.90,NW,310,5.0,5.0,79,0.00,,,0.00,WeatherCatV2.20B280,2015-07-31 08:33:00,
2015-07-31 04:38:00,66.3,59.6,29.90,North,0,2.0,4.0,79,0.00,,,0.00,WeatherCatV2.20B280,2015-07-31 08:38:00,
2015-07-31 04:43:00,66.2,59.5,29.90,North,0,5.0,5.0,79,0.00,,,0.00,WeatherCatV2.20B280,2015-07-31 08:43:00,
2015-07-31 04:48:00,66.2,59.5,29.90,North,0,0.0,3.0,79,0.00,,,0.00,WeatherCatV2.20B280,2015-07-31 08:48:00,
2015-07-31 04:53:00,66.1,59.4,29.90,North,0,3.0,3.0,79,0.00,,,0.00,WeatherCatV2.20B280,2015-07-31 08:53:00,
2015-07-31 04:58:00,66.0,59.3,29.90,North,0,3.0,4.0,79,0.00,,,0.00,WeatherCatV2.20B280,2015-07-31 08:58:00,
2015-07-31 05:03:00,65.8,59.5,29.90,North,0,1.0,3.0,80,0.00,,,0.00,WeatherCatV2.20B280,2015-07-31 09:03:00,
2015-07-31 05:08:00,65.6,59.3,29.90,North,0,5.0,5.0,80,0.00,,,0.00,WeatherCatV2.20B280,2015-07-31 09:08:00,
2015-07-31 05:13:00,65.6,59.3,29.90,North,0,4.0,5.0,80,0.00,,,0.00,WeatherCatV2.20B280,2015-07-31 09:13:00,
2015-07-31 05:18:00,65.6,59.6,29.90,North,0,4.0,4.0,81,0.00,,,0.00,WeatherCatV2.20B280,2015-07-31 09:18:00,
2015-07-31 05:23:00,65.5,59.5,29.90,North,0,2.0,5.0,81,0.00,,,0.00,WeatherCatV2.20B280,2015-07-31 09:23:00,
2015-07-31 05:28:00,65.5,59.5,29.90,North,0,2.0,5.0,81,0.00,,,0.00,WeatherCatV2.20B280,2015-07-31 09:28:00,
2015-07-31 05:33:00,65.3,59.3,29.90,North,0,2.0,4.0,81,0.00,,,0.00,WeatherCatV2.20B280,2015-07-31 09:33:00,
2015-07-31 05:38:00,65.3,59.3,29.90,North,0,1.0,4.0,81,0.00,,,0.00,WeatherCatV2.20B280,2015-07-31 09:38:00,
2015-07-31 05:43:00,65.2,59.2,29.90,North,0,4.0,4.0,81,0.00,,,0.00,WeatherCatV2.20B280,2015-07-31 09:43:00,
2015-07-31 05:48:00,65.2,59.2,29.90,North,0,4.0,5.0,81,0.00,,,0.00,WeatherCatV2.20B280,2015-07-31 09:48:00,
2015-07-31 05:53:00,65.2,59.2,29.90,North,0,4.0,5.0,81,0.00,,,0.00,WeatherCatV2.20B280,2015-07-31 09:53:00,
2015-07-31 05:58:00,65.2,59.2,29.90,North,0,3.0,6.0,81,0.00,,,0.00,WeatherCatV2.20B280,2015-07-31 09:58:00,
2015-07-31 06:03:00,65.0,59.4,29.90,North,0,3.0,6.0,82,0.00,,,0.00,WeatherCatV2.20B280,2015-07-31 10:03:00,
2015-07-31 06:08:00,64.9,59.3,29.89,North,0,0.0,5.0,82,0.00,,,0.00,WeatherCatV2.20B280,2015-07-31 10:08:00,
2015-07-31 06:13:00,64.7,59.1,29.90,North,0,1.0,4.0,82,0.00,,,0.00,WeatherCatV2.20B280,2015-07-31 10:13:00,
2015-07-31 06:18:00,64.6,59.0,29.90,North,0,1.0,2.0,82,0.00,,,0.00,WeatherCatV2.20B280,2015-07-31 10:18:00,
2015-07-31 06:23:00,64.5,59.2,29.90,North,0,1.0,4.0,83,0.00,,,0.00,WeatherCatV2.20B280,2015-07-31 10:23:00,
2015-07-31 06:28:00,64.5,59.2,29.90,North,0,0.0,4.0,83,0.00,,,0.00,WeatherCatV2.20B280,2015-07-31 10:28:00,
2015-07-31 06:33:00,64.3,59.0,29.90,North,0,2.0,3.0,83,0.00,,,0.00,WeatherCatV2.20B280,2015-07-31 10:33:00,
2015-07-31 06:38:00,64.1,59.2,29.90,North,0,3.0,4.0,84,0.00,,,0.00,WeatherCatV2.20B280,2015-07-31 10:38:00,
2015-07-31 06:43:00,64.2,59.3,29.90,North,0,1.0,4.0,84,0.00,,,0.00,WeatherCatV2.20B280,2015-07-31 10:43:00,
2015-07-31 06:48:00,64.2,59.3,29.90,North,0,0.0,2.0,84,0.00,,,0.00,WeatherCatV2.20B280,2015-07-31 10:48:00,
2015-07-31 06:53:00,64.3,59.4,29.90,North,0,0.0,2.0,84,0.00,,,0.00,WeatherCatV2.20B280,2015-07-31 10:53:00,
2015-07-31 06:58:00,64.5,59.5,29.90,North,0,0.0,3.0,84,0.00,,,0.00,WeatherCatV2.20B280,2015-07-31 10:58:00,
2015-07-31 07:03:00,64.6,59.3,29.90,North,0,1.0,2.0,83,0.00,,,0.00,WeatherCatV2.20B280,2015-07-31 11:03:00,
2015-07-31 07:08:00,64.7,59.4,29.90,North,0,2.0,3.0,83,0.00,,,0.00,WeatherCatV2.20B280,2015-07-31 11:08:00,
2015-07-31 07:13:00,64.6,59.7,29.90,North,0,2.0,2.0,84,0.00,,,0.00,WeatherCatV2.20B280,2015-07-31 11:13:00,
2015-07-31 07:18:00,64.7,59.8,29.90,North,0,3.0,4.0,84,0.00,,,0.00,WeatherCatV2.20B280,2015-07-31 11:18:00,
2015-07-31 07:23:00,64.9,59.9,29.90,North,0,0.0,2.0,84,0.00,,,0.00,WeatherCatV2.20B280,2015-07-31 11:23:00,
2015-07-31 07:28:00,65.1,60.1,29.90,North,0,0.0,2.0,84,0.00,,,0.00,WeatherCatV2.20B280,2015-07-31 11:28:00,
2015-07-31 07:33:00,65.4,60.4,29.90,North,0,1.0,2.0,84,0.00,,,0.00,WeatherCatV2.20B280,2015-07-31 11:33:00,
2015-07-31 07:38:00,65.7,60.4,29.90,North,0,1.0,3.0,83,0.00,,,0.00,WeatherCatV2.20B280,2015-07-31 11:38:00,
2015-07-31 07:43:00,65.9,60.6,29.90,North,0,3.0,4.0,83,0.00,,,0.00,WeatherCatV2.20B280,2015-07-31 11:43:00,
2015-07-31 07:48:00,66.1,60.8,29.90,North,0,2.0,3.0,83,0.00,,,0.00,WeatherCatV2.20B280,2015-07-31 11:48:00,
2015-07-31 07:53:00,66.3,61.3,29.90,North,0,2.0,2.0,84,0.00,,,0.00,WeatherCatV2.20B280,2015-07-31 11:53:00,
2015-07-31 07:58:00,66.8,61.5,29.90,North,0,1.0,3.0,83,0.00,,,0.00,WeatherCatV2.20B280,2015-07-31 11:58:00,
2015-07-31 08:04:00,67.2,61.5,29.91,North,0,4.0,5.0,82,0.00,,,0.00,WeatherCatV2.20B280,2015-07-31 12:04:00,
2015-07-31 08:09:00,67.6,61.9,29.91,North,0,2.0,4.0,82,0.00,,,0.00,WeatherCatV2.20B280,2015-07-31 12:09:00,
2015-07-31 08:14:00,68.1,62.4,29.90,North,0,1.0,3.0,82,0.00,,,0.00,WeatherCatV2.20B280,2015-07-31 12:14:00,
2015-07-31 08:19:00,68.6,62.2,29.91,North,0,4.0,5.0,80,0.00,,,0.00,WeatherCatV2.20B280,2015-07-31 12:19:00,
2015-07-31 08:24:00,69.1,62.3,29.91,North,0,1.0,8.0,79,0.00,,,0.00,WeatherCatV2.20B280,2015-07-31 12:24:00,
2015-07-31 08:29:00,69.5,62.3,29.91,North,0,2.0,6.0,78,0.00,,,0.00,WeatherCatV2.20B280,2015-07-31 12:29:00,
2015-07-31 08:34:00,70.0,62.8,29.90,North,0,4.0,6.0,78,0.00,,,0.00,WeatherCatV2.20B280,2015-07-31 12:34:00,
2015-07-31 08:40:00,70.4,62.5,29.90,North,0,3.0,9.0,76,0.00,,,0.00,WeatherCatV2.20B280,2015-07-31 12:40:00,
2015-07-31 08:45:00,70.8,62.8,29.90,North,0,4.0,5.0,76,0.00,,,0.00,WeatherCatV2.20B280,2015-07-31 12:45:00,
2015-07-31 08:50:00,71.2,63.2,29.90,WNW,292,2.0,4.0,76,0.00,,,0.00,WeatherCatV2.20B280,2015-07-31 12:50:00,
2015-07-31 08:55:00,71.7,63.0,29.90,North,0,5.0,7.0,74,0.00,,,0.00,WeatherCatV2.20B280,2015-07-31 12:55:00,
2015-07-31 09:00:00,72.1,63.0,29.90,North,0,8.0,10.0,73,0.00,,,0.00,WeatherCatV2.20B280,2015-07-31 13:00:00,
2015-07-31 09:05:00,72.4,63.2,29.91,North,0,6.0,8.0,73,0.00,,,0.00,WeatherCatV2.20B280,2015-07-31 13:05:00,
2015-07-31 09:09:00,72.6,63.0,29.90,North,0,4.0,6.0,72,0.00,,,0.00,WeatherCatV2.20B280,2015-07-31 13:09:00,
2015-07-31 09:14:00,72.9,63.7,29.90,North,0,8.0,11.0,73,0.00,,,0.00,WeatherCatV2.20B280,2015-07-31 13:14:00,
2015-07-31 09:19:00,73.3,64.5,29.91,North,0,5.0,6.0,74,0.00,,,0.00,WeatherCatV2.20B280,2015-07-31 13:19:00,
2015-07-31 09:24:00,73.6,63.6,29.90,North,0,3.0,6.0,71,0.00,,,0.00,WeatherCatV2.20B280,2015-07-31 13:24:00,
2015-07-31 09:29:00,74.0,63.2,29.90,North,0,8.0,8.0,69,0.00,,,0.00,WeatherCatV2.20B280,2015-07-31 13:29:00,
2015-07-31 09:34:00,74.4,64.4,29.90,SSW,209,0.0,4.0,71,0.00,,,0.00,WeatherCatV2.20B280,2015-07-31 13:34:00,
2015-07-31 09:39:00,74.8,63.5,29.90,North,0,4.0,6.0,68,0.00,,,0.00,WeatherCatV2.20B280,2015-07-31 13:39:00,
2015-07-31 09:44:00,75.2,64.7,29.90,North,0,3.0,4.0,70,0.00,,,0.00,WeatherCatV2.20B280,2015-07-31 13:44:00,
2015-07-31 09:49:00,75.3,63.6,29.90,SSW,198,4.0,10.0,67,0.00,,,0.00,WeatherCatV2.20B280,2015-07-31 13:49:00,
2015-07-31 09:54:00,75.5,63.8,29.90,North,0,2.0,9.0,67,0.00,,,0.00,WeatherCatV2.20B280,2015-07-31 13:54:00,
2015-07-31 09:59:00,76.0,65.1,29.90,North,0,1.0,6.0,69,0.00,,,0.00,WeatherCatV2.20B280,2015-07-31 13:59:00,
2015-07-31 10:04:00,76.5,64.7,29.90,North,0,8.0,11.0,67,0.00,,,0.00,WeatherCatV2.20B280,2015-07-31 14:04:00,
2015-07-31 10:09:00,76.6,64.8,29.90,North,0,4.0,6.0,67,0.00,,,0.00,WeatherCatV2.20B280,2015-07-31 14:09:00,
2015-07-31 10:19:00,77.2,64.5,29.90,North,0,4.0,8.0,65,0.00,,,0.00,WeatherCatV2.20B280,2015-07-31 14:19:00,
2015-07-31 10:24:00,77.3,64.6,29.89,SSW,212,4.0,9.0,65,0.00,,,0.00,WeatherCatV2.20B280,2015-07-31 14:24:00,
2015-07-31 10:29:00,77.8,65.1,29.89,North,0,5.0,9.0,65,0.00,,,0.00,WeatherCatV2.20B280,2015-07-31 14:29:00,
2015-07-31 10:34:00,78.2,64.6,29.89,South,189,9.0,12.0,63,0.00,,,0.00,WeatherCatV2.20B280,2015-07-31 14:34:00,
2015-07-31 10:39:00,78.4,65.2,29.89,SSW,209,3.0,5.0,64,0.00,,,0.00,WeatherCatV2.20B280,2015-07-31 14:39:00,
2015-07-31 10:45:00,78.8,65.1,29.89,SSW,204,5.0,10.0,63,0.00,,,0.00,WeatherCatV2.20B280,2015-07-31 14:45:00,
2015-07-31 10:50:00,78.7,64.6,29.89,North,0,5.0,10.0,62,0.00,,,0.00,WeatherCatV2.20B280,2015-07-31 14:50:00,
2015-07-31 11:00:00,79.4,65.7,29.88,North,0,9.0,9.0,63,0.00,,,0.00,WeatherCatV2.20B280,2015-07-31 15:00:00,
2015-07-31 11:05:00,79.6,64.9,29.88,North,0,6.0,11.0,61,0.00,,,0.00,WeatherCatV2.20B280,2015-07-31 15:05:00,
2015-07-31 11:10:00,79.4,63.3,29.88,North,0,5.0,11.0,58,0.00,,,0.00,WeatherCatV2.20B280,2015-07-31 15:10:00,
2015-07-31 11:15:00,79.5,63.4,29.88,North,0,3.0,11.0,58,0.00,,,0.00,WeatherCatV2.20B280,2015-07-31 15:15:00,
2015-07-31 11:20:00,79.8,64.7,29.88,North,0,10.0,10.0,60,0.00,,,0.00,WeatherCatV2.20B280,2015-07-31 15:20:00,
2015-07-31 11:25:00,80.0,64.4,29.88,NW,310,3.0,8.0,59,0.00,,,0.00,WeatherCatV2.20B280,2015-07-31 15:25:00,
2015-07-31 11:30:00,80.1,64.0,29.88,North,0,3.0,8.0,58,0.00,,,0.00,WeatherCatV2.20B280,2015-07-31 15:30:00,
2015-07-31 11:35:00,80.3,64.6,29.88,North,0,5.0,8.0,59,0.00,,,0.00,WeatherCatV2.20B280,2015-07-31 15:35:00,
2015-07-31 11:40:00,80.7,65.0,29.88,North,0,4.0,10.0,59,0.00,,,0.00,WeatherCatV2.20B280,2015-07-31 15:40:00,
2015-07-31 11:45:00,80.8,66.5,29.88,North,0,8.0,9.0,62,0.00,,,0.00,WeatherCatV2.20B280,2015-07-31 15:45:00,
2015-07-31 11:50:00,81.3,64.6,29.88,North,0,9.0,12.0,57,0.00,,,0.00,WeatherCatV2.20B280,2015-07-31 15:50:00,
2015-07-31 11:55:00,81.2,64.0,29.88,North,0,11.0,12.0,56,0.00,,,0.00,WeatherCatV2.20B280,2015-07-31 15:55:00,
2015-07-31 12:00:00,81.4,63.7,29.88,North,0,12.0,14.0,55,0.00,,,0.00,WeatherCatV2.20B280,2015-07-31 16:00:00,
2015-07-31 12:05:00,81.6,62.8,29.88,North,0,6.0,12.0,53,0.00,,,0.00,WeatherCatV2.20B280,2015-07-31 16:05:00,
2015-07-31 12:10:00,81.4,62.1,29.87,SSW,204,5.0,16.0,52,0.00,,,0.00,WeatherCatV2.20B280,2015-07-31 16:10:00,
2015-07-31 12:15:00,81.6,62.8,29.87,SSW,202,13.0,13.0,53,0.00,,,0.00,WeatherCatV2.20B280,2015-07-31 16:15:00,
2015-07-31 12:20:00,82.0,63.2,29.87,North,0,9.0,10.0,53,0.00,,,0.00,WeatherCatV2.20B280,2015-07-31 16:20:00,
2015-07-31 12:25:00,82.1,62.2,29.87,North,0,13.0,14.0,51,0.00,,,0.00,WeatherCatV2.20B280,2015-07-31 16:25:00,
2015-07-31 12:31:00,82.2,62.2,29.87,North,0,16.0,18.0,51,0.00,,,0.00,WeatherCatV2.20B280,2015-07-31 16:31:00,
2015-07-31 12:36:00,82.3,61.8,29.86,North,0,12.0,13.0,50,0.00,,,0.00,WeatherCatV2.20B280,2015-07-31 16:36:00,
2015-07-31 12:41:00,82.6,62.6,29.86,North,0,5.0,13.0,51,0.00,,,0.00,WeatherCatV2.20B280,2015-07-31 16:41:00,
2015-07-31 12:46:00,82.9,61.2,29.86,WNW,297,11.0,17.0,48,0.00,,,0.00,WeatherCatV2.20B280,2015-07-31 16:46:00,
2015-07-31 12:51:00,83.0,62.4,29.86,North,0,9.0,17.0,50,0.00,,,0.00,WeatherCatV2.20B280,2015-07-31 16:51:00,
2015-07-31 12:56:00,82.7,62.1,29.86,North,0,9.0,14.0,50,0.00,,,0.00,WeatherCatV2.20B280,2015-07-31 16:56:00,
2015-07-31 13:01:00,82.9,61.8,29.85,North,0,11.0,14.0,49,0.00,,,0.00,WeatherCatV2.20B280,2015-07-31 17:01:00,
2015-07-31 13:06:00,83.1,63.6,29.85,North,0,10.0,12.0,52,0.00,,,0.00,WeatherCatV2.20B280,2015-07-31 17:06:00,
2015-07-31 13:11:00,82.9,62.3,29.85,North,0,4.0,11.0,50,0.00,,,0.00,WeatherCatV2.20B280,2015-07-31 17:11:00,
2015-07-31 13:16:00,83.4,61.6,29.85,North,0,8.0,13.0,48,0.00,,,0.00,WeatherCatV2.20B280,2015-07-31 17:16:00,
2015-07-31 13:21:00,83.7,64.2,29.85,NW,319,11.0,16.0,52,0.00,,,0.00,WeatherCatV2.20B280,2015-07-31 17:21:00,
2015-07-31 13:26:00,82.8,62.2,29.85,North,0,5.0,11.0,50,0.00,,,0.00,WeatherCatV2.20B280,2015-07-31 17:26:00,
2015-07-31 13:31:00,82.1,62.2,29.85,North,0,10.0,14.0,51,0.00,,,0.00,WeatherCatV2.20B280,2015-07-31 17:31:00,
2015-07-31 13:37:00,82.9,62.3,29.84,North,0,17.0,17.0,50,0.00,,,0.00,WeatherCatV2.20B280,2015-07-31 17:37:00,
2015-07-31 13:42:00,83.4,63.3,29.84,North,0,11.0,16.0,51,0.00,,,0.00,WeatherCatV2.20B280,2015-07-31 17:42:00,
2015-07-31 13:47:00,84.0,63.3,29.84,SSW,204,10.0,18.0,50,0.00,,,0.00,WeatherCatV2.20B280,2015-07-31 17:47:00,
2015-07-31 13:52:00,83.6,63.0,29.84,North,0,13.0,14.0,50,0.00,,,0.00,WeatherCatV2.20B280,2015-07-31 17:52:00,
2015-07-31 13:57:00,83.5,62.9,29.83,North,0,5.0,12.0,50,0.00,,,0.00,WeatherCatV2.20B280,2015-07-31 17:57:00,
2015-07-31 14:02:00,83.8,64.3,29.83,North,0,9.0,16.0,52,0.00,,,0.00,WeatherCatV2.20B280,2015-07-31 18:02:00,
2015-07-31 14:07:00,82.5,61.4,29.83,North,0,11.0,18.0,49,0.00,,,0.00,WeatherCatV2.20B280,2015-07-31 18:07:00,
2015-07-31 14:12:00,82.3,61.8,29.83,North,0,16.0,18.0,50,0.00,,,0.00,WeatherCatV2.20B280,2015-07-31 18:12:00,
2015-07-31 14:17:00,83.1,63.1,29.83,SSE,150,4.0,15.0,51,0.00,,,0.00,WeatherCatV2.20B280,2015-07-31 18:17:00,
2015-07-31 14:22:00,83.3,62.1,29.83,North,0,10.0,16.0,49,0.00,,,0.00,WeatherCatV2.20B280,2015-07-31 18:22:00,
2015-07-31 14:27:00,82.0,62.1,29.83,South,175,12.0,15.0,51,0.00,,,0.00,WeatherCatV2.20B280,2015-07-31 18:27:00,
2015-07-31 14:32:00,82.9,63.4,29.82,North,0,5.0,16.0,52,0.00,,,0.00,WeatherCatV2.20B280,2015-07-31 18:32:00,
2015-07-31 14:37:00,83.1,62.5,29.82,North,0,12.0,14.0,50,0.00,,,0.00,WeatherCatV2.20B280,2015-07-31 18:37:00,
2015-07-31 14:42:00,82.3,61.8,29.82,NW,310,5.0,16.0,50,0.00,,,0.00,WeatherCatV2.20B280,2015-07-31 18:42:00,
2015-07-31 14:47:00,81.3,62.0,29.82,North,0,5.0,11.0,52,0.00,,,0.00,WeatherCatV2.20B280,2015-07-31 18:47:00,
2015-07-31 14:52:00,80.6,61.9,29.82,North,0,5.0,11.0,53,0.00,,,0.00,WeatherCatV2.20B280,2015-07-31 18:52:00,
2015-07-31 14:57:00,80.6,63.4,29.82,WNW,290,3.0,11.0,56,0.00,,,0.00,WeatherCatV2.20B280,2015-07-31 18:57:00,
2015-07-31 15:02:00,82.9,64.5,29.81,North,0,10.0,10.0,54,0.00,,,0.00,WeatherCatV2.20B280,2015-07-31 19:02:00,
2015-07-31 15:07:00,83.3,63.2,29.81,North,0,8.0,12.0,51,0.00,,,0.00,WeatherCatV2.20B280,2015-07-31 19:07:00,
2015-07-31 15:12:00,82.8,63.3,29.81,North,0,11.0,15.0,52,0.00,,,0.00,WeatherCatV2.20B280,2015-07-31 19:12:00,
2015-07-31 15:17:00,82.7,62.7,29.81,North,0,9.0,11.0,51,0.00,,,0.00,WeatherCatV2.20B280,2015-07-31 19:17:00,
2015-07-31 15:22:00,83.4,62.8,29.81,SW,217,6.0,24.0,50,0.00,,,0.00,WeatherCatV2.20B280,2015-07-31 19:22:00,